Dewpoint
19 12 5 4 6 9 10 12 11 14 14 11 12 12 14 16 15 8 2 2 4 6 8 9 11 14 16 18 20 22 24 25 28 28 27 26 25 25 25 25 26 26 28 29
18 9 8 9 12 10 10 12 16 16 13 10 12 15 15 9 12 14 7 6 7 7 4 7 11 12 14 16 17 20 23 25 27 29 28 27 26 26 26 27 27 27 27 29
15 9 11 11 9 10 12 13 11 10 11 15 16 20 15 5 5 8 11 10 8 9 4 4 4 8 12 14 16 19 23 25 27 28 29 28 26 26 25 25 26 25 26 28
12 10 11 13 8 7 16 11 10 10 14 14 17 17 17 18 3 2 10 7 7 6 5 4 5 7 9 10 15 19 23 25 27 28 28 26 25 23 25 25 25 25 26 27
20 13 12 13 10 8 15 12 12 11 12 11 17 15 18 17 1 1 2 5 5 6 7 8 9 10 14 15 16 19 22 25 27 27 27 26 25 26 25 24 22 22 25 26
15 13 12 11 12 11 13 19 11 15 16 12 11 14 18 12 2 -0 2 4 7 8 8 9 13 15 19 21 19 19 21 23 25 26 26 25 22 19 20 20 21 21 25 26
26 15 14 16 19 15 18 19 15 15 15 15 12 11 20 20 23 -0 2 5 6 8 10 14 20 25 26 27 25 21 22 23 23 22 19 18 18 17 18 19 21 21 22 24
21 23 18 15 18 13 19 17 15 7 13 15 12 11 18 19 5 5 6 8 18 20 18 22 26 27 28 29 28 23 21 21 21 18 18 18 18 20 21 22 22 23 22 23
20 23 14 12 12 18 21 16 16 7 7 10 16 18 21 7 5 19 21 23 24 25 26 26 28 30 30 30 30 27 22 20 18 18 18 18 18 19 20 20 22 23 23 23
21 18 18 13 16 14 18 20 14 12 7 10 15 13 20 8 5 17 25 24 25 27 28 29 30 30 31 31 30 28 21 17 16 17 17 17 19 20 20 21 21 22 23 23
16 17 22 17 19 15 14 10 11 13 14 10 9 16 22 20 20 21 24 25 26 27 27 29 29 30 30 31 31 29 19 19 19 17 17 17 19 20 21 21 21 21 23 22
19 20 15 22 14 12 15 13 10 17 15 9 9 17 25 20 22 17 21 24 26 27 28 29 30 30 31 31 31 31 25 20 18 17 17 17 19 20 20 21 21 22 22 22
24 25 25 23 17 15 7 6 6 7 16 10 20 18 22 23 16 19 19 25 27 27 27 29 30 30 30 30 29 30 24 19 17 17 17 17 18 18 18 19 20 21 21 22
23 22 23 26 24 24 24 13 7 17 19 13 17 18 23 23 21 22 25 25 25 25 27 29 28 29 29 29 28 27 20 18 17 17 17 17 18 18 18 19 20 21 21 21
21 18 15 19 19 17 17 19 14 13 20 14 20 16 20 16 15 23 20 21 23 25 27 27 27 27 29 28 26 23 20 18 18 17 17 17 17 18 19 19 20 20 21 21
18 20 19 19 21 14 14 18 16 14 18 18 19 19 23 25 15 14 21 23 23 25 25 26 26 26 26 26 23 20 18 17 17 17 17 17 18 18 18 19 19 20 20 21
22 19 20 20 16 18 17 18 12 7 5 12 11 17 7 12 13 16 21 25 25 24 24 26 24 23 24 22 20 16 18 18 18 18 17 17 17 18 18 18 19 19 19 21
21 19 20 18 15 12 18 15 14 16 11 13 14 13 11 16 18 20 25 23 23 22 26 27 26 26 24 16 15 18 19 18 18 17 17 17 17 17 17 17 18 18 19 19
20 18 16 13 10 16 18 18 15 15 15 17 16 17 15 18 16 21 25 18 20 23 25 24 25 22 14 16 17 17 18 17 17 17 16 16 17 17 17 17 18 18 19 19
13 16 15 11 9 11 18 19 19 16 13 18 15 15 26 20 21 23 19 18 22 22 23 24 24 13 12 18 17 17 17 17 16 15 16 16 17 17 17 17 18 18 19 19
8 8 13 14 15 14 18 16 18 14 19 22 25 25 28 25 25 22 25 24 19 22 24 20 15 14 15 16 14 16 16 15 16 16 16 17 17 17 17 18 19 19 19 19
12 12 8 11 13 12 15 15 19 26 24 27 26 27 24 22 23 23 23 22 21 22 22 21 16 17 15 13 9 13 14 16 16 16 16 16 17 17 17 18 19 19 19 19
24 24 20 16 14 19 15 20 28 27 24 24 23 26 26 23 23 23 22 23 23 22 21 21 16 16 15 11 11 12 15 15 15 16 16 17 17 18 18 19 19 20 20 20
24 26 28 25 26 26 26 25 28 25 23 25 28 28 26 21 22 22 23 23 22 23 21 18 13 13 14 13 10 11 14 15 15 16 16 17 18 18 19 19 19 19 19 18
31 26 24 25 27 27 26 24 24 23 24 26 25 24 23 22 22 22 23 23 23 21 21 14 12 15 15 14 10 10 12 14 15 16 17 18 18 18 19 19 19 20 22 23
28 27 26 25 26 27 27 25 24 22 22 22 23 22 23 23 23 23 23 23 23 21 21 18 17 15 12 11 9 9 10 13 14 15 17 17 18 19 19 20 19 22 23 24
Lifted_Index
6 5 5 6 6 6 6 5 5 6 6 6 5 6 7 8 8 8 9 10 11 12 13 13 13 13 13 12 12 13 13 14 14 15 15 15 16 17 18 18 19 19 20 21
5 5 6 6 6 6 6 5 5 6 6 6 5 5 7 7 7 8 9 10 11 11 12 13 13 13 13 12 12 12 13 13 14 15 15 16 17 18 18 18 19 19 20 21
5 6 6 6 6 6 6 6 5 5 5 5 5 5 6 7 7 8 9 10 11 11 12 13 13 13 13 12 12 12 13 13 14 15 16 17 17 18 18 18 18 19 21 21
6 6 6 6 6 6 6 6 6 6 5 4 4 4 5 6 7 8 10 11 11 11 12 13 13 13 12 12 12 12 13 13 14 14 15 16 17 18 19 19 19 20 21 22
6 6 6 6 7 7 7 7 6 6 5 4 4 4 4 6 7 8 9 10 11 12 13 13 14 13 12 12 12 12 13 13 13 14 14 15 16 18 19 19 19 19 20 21
6 6 6 6 7 7 7 7 6 5 5 4 4 4 5 6 7 8 9 10 10 12 13 13 13 12 12 12 12 12 13 13 13 14 14 15 16 18 18 18 18 18 19 19
5 5 6 6 7 7 7 6 5 3 3 3 4 4 5 7 8 9 9 10 10 11 12 12 12 11 11 12 12 12 13 13 13 13 14 15 16 17 18 17 17 17 18 18
5 5 6 7 7 7 7 6 5 3 2 3 4 5 5 7 9 9 10 10 10 11 11 11 11 11 11 12 12 12 12 13 13 13 14 14 15 16 17 18 18 18 18 18
5 5 6 7 7 7 7 6 6 4 3 3 4 5 6 7 8 9 9 9 10 10 10 10 11 11 11 12 12 12 12 12 13 13 14 14 15 16 17 18 19 19 19 19
7 6 6 7 7 7 7 6 6 5 3 2 3 5 5 6 7 8 8 9 9 9 10 10 11 11 12 12 12 12 12 12 13 14 15 15 15 16 17 18 19 19 19 19
8 7 6 6 7 7 6 6 6 5 4 3 3 4 5 6 7 7 8 8 9 9 10 10 11 12 12 12 12 12 12 12 13 14 15 15 15 16 18 19 19 19 19 19
8 8 6 6 6 7 6 6 6 6 5 4 4 4 6 7 7 7 8 8 8 9 10 10 11 12 12 12 12 12 12 13 14 15 15 14 15 16 18 18 19 19 19 19
8 7 6 5 6 7 7 7 7 6 6 5 4 4 5 7 7 7 8 8 9 9 10 10 11 11 11 11 12 12 12 13 14 15 14 14 15 17 18 18 19 19 18 18
8 7 5 5 6 7 8 7 7 7 6 5 4 5 6 7 8 8 8 8 9 9 10 10 11 11 11 12 12 12 12 13 14 14 14 15 16 17 18 18 19 19 19 19
7 6 6 6 7 8 8 7 7 6 6 5 5 6 7 8 8 8 8 8 8 9 9 10 11 11 11 12 12 12 12 13 14 14 14 16 17 17 18 18 19 19 19 19
6 6 6 7 7 8 7 6 6 6 6 6 6 6 7 8 8 8 8 8 8 9 9 10 11 11 11 12 12 12 12 13 13 14 15 16 17 17 18 18 18 19 19 19
6 6 6 6 7 7 6 6 7 7 7 7 7 7 7 8 8 8 7 8 8 9 10 10 11 11 11 12 12 12 12 13 13 14 16 16 17 17 17 17 18 18 19 19
6 6 6 6 6 6 7 7 8 8 7 7 7 7 8 8 7 7 7 8 8 9 10 11 11 11 11 12 12 12 12 13 14 15 16 16 16 17 17 17 17 18 18 19
6 6 6 6 5 5 7 7 8 8 8 8 8 8 7 7 7 7 8 9 10 10 11 11 11 11 11 12 12 11 12 13 14 15 15 16 16 17 17 17 17 18 18 18
7 7 7 6 4 5 6 7 7 7 8 8 8 7 7 8 8 8 9 10 11 11 11 11 11 11 12 12 11 11 11 12 14 15 16 16 16 17 17 17 17 18 18 18
7 7 7 6 5 5 6 7 7 7 7 8 8 7 7 8 8 9 10 10 10 10 11 11 11 12 11 11 11 11 11 13 15 16 16 16 16 17 17 17 17 18 18 18
7 7 6 6 5 5 6 6 6 6 7 7 7 7 7 8 8 9 10 10 10 10 11 11 11 11 11 11 11 10 11 14 16 16 16 16 16 17 17 17 17 17 18 17
7 7 6 6 5 5 5 5 5 6 6 6 7 7 8 8 9 9 9 10 10 10 10 11 11 11 11 11 11 11 12 14 16 15 15 16 16 16 16 17 17 17 17 17
7 6 6 6 5 5 5 5 5 6 6 6 7 8 8 9 9 9 9 10 10 10 10 10 11 10 10 10 10 11 13 15 15 15 15 15 16 16 16 16 17 17 18 18
6 6 5 6 6 5 5 6 6 6 6 7 8 9 9 9 9 9 10 10 10 10 10 10 10 9 9 9 10 11 13 14 14 14 15 15 15 15 15 16 17 18 19 19
6 5 5 6 6 6 6 6 6 7 7 8 9 9 9 10 10 10 10 10 10 9 9 9 9 9 9 9 9 10 13 14 14 14 14 15 15 15 16 16 17 18 19 20